Time,TemperatureF,DewpointF,PressureIn,WindDirection,WindDirectionDegrees,WindSpeedMPH,WindSpeedGustMPH,Humidity,HourlyPrecipIn,Conditions,Clouds,dailyrainin,SoftwareType,DateUTC
2013-08-20 00:00:00,83.7,78.3,29.91,ENE,73,9.0,15.0,84,0.00,CLR,,0.00,WeatherDisplay:10.37,2013-08-20 06:00:00,
2013-08-20 00:15:00,84.2,78.1,29.90,East,91,10.0,19.0,82,0.00,CLR,,0.00,WeatherDisplay:10.37,2013-08-20 06:15:00,
2013-08-20 00:30:00,84.2,78.5,29.90,East,97,12.0,18.0,83,0.00,CLR,,0.00,WeatherDisplay:10.37,2013-08-20 06:30:00,
2013-08-20 00:45:00,84.1,78.4,29.89,East,81,12.0,18.0,83,0.00,CLR,,0.00,WeatherDisplay:10.37,2013-08-20 06:45:00,
2013-08-20 01:00:00,84.3,78.9,29.89,ENE,68,14.0,18.0,84,0.00,CLR,,0.00,WeatherDisplay:10.37,2013-08-20 07:00:00,
2013-08-20 01:15:00,84.1,77.7,29.88,East,100,12.0,20.0,81,0.00,CLR,,0.00,WeatherDisplay:10.37,2013-08-20 07:15:00,
2013-08-20 01:30:00,84.3,78.9,29.88,East,89,6.0,19.0,84,0.00,CLR,,0.00,WeatherDisplay:10.37,2013-08-20 07:30:00,
2013-08-20 01:45:00,83.7,78.7,29.88,ESE,104,7.0,18.0,85,0.00,CLR,,0.00,WeatherDisplay:10.37,2013-08-20 07:45:00,
2013-08-20 02:00:00,84.1,78.4,29.88,East,90,7.0,16.0,83,0.00,CLR,,0.00,WeatherDisplay:10.37,2013-08-20 08:00:00,
2013-08-20 02:15:00,84.2,78.5,29.87,East,98,9.0,18.0,83,0.00,CLR,,0.00,WeatherDisplay:10.37,2013-08-20 08:15:00,
2013-08-20 02:30:00,84.2,78.5,29.87,East,99,8.0,19.0,83,0.00,CLR,,0.00,WeatherDisplay:10.37,2013-08-20 08:30:00,
2013-08-20 02:45:00,84.2,78.8,29.87,ESE,108,8.0,18.0,84,0.00,CLR,,0.00,WeatherDisplay:10.37,2013-08-20 08:45:00,
2013-08-20 03:00:00,83.8,78.1,29.86,East,87,6.0,14.0,83,0.00,CLR,,0.00,WeatherDisplay:10.37,2013-08-20 09:00:00,
2013-08-20 03:15:00,83.9,77.8,29.86,ESE,107,12.0,19.0,82,0.00,CLR,,0.00,WeatherDisplay:10.37,2013-08-20 09:15:00,
2013-08-20 03:30:00,84.3,77.5,29.86,East,101,12.0,16.0,80,0.00,CLR,,0.00,WeatherDisplay:10.37,2013-08-20 09:30:00,
2013-08-20 03:45:00,84.3,77.8,29.86,East,99,12.0,16.0,81,0.00,CLR,,0.00,WeatherDisplay:10.37,2013-08-20 09:45:00,
2013-08-20 04:00:00,84.3,78.2,29.87,ESE,105,8.0,14.0,82,0.00,CLR,,0.00,WeatherDisplay:10.37,2013-08-20 10:00:00,
2013-08-20 04:15:00,84.2,78.1,29.87,ESE,104,9.0,16.0,82,0.00,CLR,,0.00,WeatherDisplay:10.37,2013-08-20 10:15:00,
2013-08-20 04:30:00,84.1,78.4,29.87,ESE,104,12.0,14.0,83,0.00,CLR,,0.00,WeatherDisplay:10.37,2013-08-20 10:30:00,
2013-08-20 04:45:00,84.1,78.0,29.87,ESE,108,10.0,16.0,82,0.00,CLR,,0.00,WeatherDisplay:10.37,2013-08-20 10:45:00,
2013-08-20 05:00:00,84.3,77.4,29.87,ESE,102,12.0,16.0,80,0.00,CLR,,0.00,WeatherDisplay:10.37,2013-08-20 11:00:00,
2013-08-20 05:15:00,84.1,77.3,29.88,ESE,103,15.0,18.0,80,0.00,CLR,,0.00,WeatherDisplay:10.37,2013-08-20 11:15:00,
2013-08-20 05:30:00,84.1,78.0,29.88,ESE,105,8.0,13.0,82,0.00,CLR,,0.00,WeatherDisplay:10.37,2013-08-20 11:30:00,
2013-08-20 05:45:00,84.2,78.1,29.88,ESE,107,7.0,16.0,82,0.00,CLR,,0.00,WeatherDisplay:10.37,2013-08-20 11:45:00,
2013-08-20 06:00:00,84.2,78.1,29.89,ESE,110,9.0,15.0,82,0.00,CLR,,0.00,WeatherDisplay:10.37,2013-08-20 12:00:00,
2013-08-20 06:15:00,84.3,78.2,29.90,ESE,110,10.0,14.0,82,0.00,CLR,,0.00,WeatherDisplay:10.37,2013-08-20 12:15:00,
2013-08-20 06:30:00,85.0,78.5,29.90,ESE,103,10.0,16.0,81,0.00,CLR,,0.00,WeatherDisplay:10.37,2013-08-20 12:30:00,
2013-08-20 06:45:00,85.4,78.5,29.90,ESE,114,8.0,15.0,80,0.00,CLR,,0.00,WeatherDisplay:10.37,2013-08-20 12:45:00,
2013-08-20 07:00:00,85.6,78.4,29.90,ESE,106,10.0,13.0,79,0.00,CLR,,0.00,WeatherDisplay:10.37,2013-08-20 13:00:00,
2013-08-20 07:15:00,85.8,78.9,29.91,ESE,105,8.0,15.0,80,0.00,CLR,,0.00,WeatherDisplay:10.37,2013-08-20 13:15:00,
2013-08-20 07:30:00,85.1,78.2,29.91,ESE,110,12.0,15.0,80,0.00,CLR,,0.00,WeatherDisplay:10.37,2013-08-20 13:30:00,
2013-08-20 07:45:00,85.1,79.0,29.92,ESE,106,9.0,15.0,82,0.00,CLR,,0.00,WeatherDisplay:10.37,2013-08-20 13:45:00,
2013-08-20 08:00:00,86.5,79.2,29.92,ESE,108,8.0,18.0,79,0.00,CLR,,0.00,WeatherDisplay:10.37,2013-08-20 14:00:00,
2013-08-20 08:15:00,86.9,79.2,29.92,ESE,107,8.0,13.0,78,0.00,CLR,,0.00,WeatherDisplay:10.37,2013-08-20 14:15:00,
2013-08-20 08:30:00,87.1,80.2,29.93,ESE,114,9.0,14.0,80,0.00,CLR,,0.00,WeatherDisplay:10.37,2013-08-20 14:30:00,
2013-08-20 08:45:00,87.3,79.2,29.94,ESE,103,7.0,14.0,77,0.00,CLR,,0.00,WeatherDisplay:10.37,2013-08-20 14:45:00,
2013-08-20 09:00:00,87.6,79.9,29.94,ESE,111,6.0,13.0,78,0.00,CLR,,0.00,WeatherDisplay:10.37,2013-08-20 15:00:00,
2013-08-20 09:15:00,87.2,79.9,29.94,ESE,107,9.0,13.0,79,0.00,CLR,,0.00,WeatherDisplay:10.37,2013-08-20 15:15:00,
2013-08-20 09:30:00,87.2,80.3,29.94,East,100,6.0,13.0,80,0.00,CLR,,0.00,WeatherDisplay:10.37,2013-08-20 15:30:00,
2013-08-20 09:45:00,87.5,79.4,29.94,ESE,105,8.0,13.0,77,0.00,CLR,,0.00,WeatherDisplay:10.37,2013-08-20 15:45:00,
2013-08-20 10:00:00,87.5,79.4,29.94,ESE,104,9.0,15.0,77,0.00,CLR,,0.00,WeatherDisplay:10.37,2013-08-20 16:00:00,
2013-08-20 10:15:00,87.9,80.2,29.94,East,97,6.0,15.0,78,0.00,CLR,,0.00,WeatherDisplay:10.37,2013-08-20 16:15:00,
2013-08-20 10:30:00,88.0,79.9,29.94,ESE,107,8.0,13.0,77,0.00,CLR,,0.00,WeatherDisplay:10.37,2013-08-20 16:30:00,
2013-08-20 10:45:00,87.8,80.1,29.94,East,100,10.0,13.0,78,0.00,CLR,,0.00,WeatherDisplay:10.37,2013-08-20 16:45:00,
2013-08-20 11:00:00,88.0,79.0,29.94,ESE,109,10.0,14.0,75,0.00,CLR,,0.00,WeatherDisplay:10.37,2013-08-20 17:00:00,
2013-08-20 11:15:00,88.2,79.7,29.94,ESE,106,6.0,13.0,76,0.00,CLR,,0.00,WeatherDisplay:10.37,2013-08-20 17:15:00,
2013-08-20 11:30:00,88.3,79.8,29.93,ESE,107,3.0,12.0,76,0.00,CLR,,0.00,WeatherDisplay:10.37,2013-08-20 17:30:00,
2013-08-20 11:45:00,88.1,80.0,29.93,ESE,115,3.0,13.0,77,0.00,CLR,,0.00,WeatherDisplay:10.37,2013-08-20 17:45:00,
2013-08-20 12:00:00,86.8,78.3,29.93,East,82,6.0,13.0,76,0.00,CLR,,0.00,WeatherDisplay:10.37,2013-08-20 18:00:00,
2013-08-20 12:15:00,88.1,80.4,29.92,East,98,5.0,9.0,78,0.00,CLR,,0.00,WeatherDisplay:10.37,2013-08-20 18:15:00,
2013-08-20 12:30:00,87.4,78.9,29.92,ESE,114,9.0,12.0,76,0.00,CLR,,0.00,WeatherDisplay:10.37,2013-08-20 18:30:00,
2013-08-20 12:45:00,87.2,79.1,29.92,ESE,115,8.0,12.0,77,0.00,CLR,,0.00,WeatherDisplay:10.37,2013-08-20 18:45:00,
2013-08-20 13:00:00,87.4,80.1,29.91,ESE,105,5.0,12.0,79,0.00,CLR,,0.00,WeatherDisplay:10.37,2013-08-20 19:00:00,
2013-08-20 13:15:00,87.6,79.5,29.91,ESE,111,3.0,9.0,77,0.00,CLR,,0.00,WeatherDisplay:10.37,2013-08-20 19:15:00,
2013-08-20 13:30:00,87.4,79.3,29.90,East,94,3.0,9.0,77,0.00,CLR,,0.00,WeatherDisplay:10.37,2013-08-20 19:30:00,
2013-08-20 13:45:00,88.1,80.0,29.89,ESE,111,3.0,9.0,77,0.00,CLR,,0.00,WeatherDisplay:10.37,2013-08-20 19:45:00,
2013-08-20 14:00:00,87.0,78.9,29.89,ESE,114,6.0,9.0,77,0.00,CLR,,0.00,WeatherDisplay:10.37,2013-08-20 20:00:00,
2013-08-20 14:15:00,87.1,78.2,29.89,ESE,113,6.0,9.0,75,0.00,CLR,,0.00,WeatherDisplay:10.37,2013-08-20 20:15:00,
2013-08-20 14:30:00,87.1,78.2,29.88,ESE,116,8.0,9.0,75,0.00,CLR,,0.00,WeatherDisplay:10.37,2013-08-20 20:30:00,
2013-08-20 14:45:00,87.0,78.9,29.88,ESE,109,7.0,9.0,77,0.00,CLR,,0.00,WeatherDisplay:10.37,2013-08-20 20:45:00,
2013-08-20 15:00:00,87.1,79.0,29.87,ESE,111,3.0,9.0,77,0.00,CLR,,0.00,WeatherDisplay:10.37,2013-08-20 21:00:00,
2013-08-20 15:15:00,86.6,79.3,29.87,East,101,3.0,10.0,79,0.00,CLR,,0.00,WeatherDisplay:10.37,2013-08-20 21:15:00,
2013-08-20 15:30:00,85.9,79.0,29.87,ESE,106,5.0,12.0,80,0.00,CLR,,0.00,WeatherDisplay:10.37,2013-08-20 21:30:00,
2013-08-20 15:45:00,85.9,78.7,29.87,ESE,105,6.0,10.0,79,0.00,CLR,,0.00,WeatherDisplay:10.37,2013-08-20 21:45:00,
2013-08-20 16:00:00,85.9,79.0,29.87,East,87,6.0,12.0,80,0.00,CLR,,0.00,WeatherDisplay:10.37,2013-08-20 22:00:00,
2013-08-20 16:15:00,85.9,79.0,29.88,East,89,6.0,10.0,80,0.00,CLR,,0.00,WeatherDisplay:10.37,2013-08-20 22:15:00,
2013-08-20 16:26:00,85.7,78.8,29.88,East,90,7.0,10.0,80,0.00,CLR,,0.00,WeatherDisplay:10.37,2013-08-20 22:26:00,
2013-08-20 16:45:00,85.5,78.6,29.88,East,92,8.0,12.0,80,0.00,CLR,,0.00,WeatherDisplay:10.37,2013-08-20 22:45:00,
2013-08-20 17:00:00,85.5,79.4,29.88,East,93,9.0,13.0,82,0.00,CLR,,0.00,WeatherDisplay:10.37,2013-08-20 23:00:00,
2013-08-20 17:15:00,85.1,79.0,29.88,East,81,9.0,14.0,82,0.00,CLR,,0.00,WeatherDisplay:10.37,2013-08-20 23:15:00,
2013-08-20 17:30:00,85.2,78.3,29.88,East,92,12.0,14.0,80,0.00,CLR,,0.00,WeatherDisplay:10.37,2013-08-20 23:30:00,
2013-08-20 17:45:00,84.8,79.4,29.88,East,86,9.0,15.0,84,0.00,CLR,,0.00,WeatherDisplay:10.37,2013-08-20 23:45:00,
2013-08-20 18:00:00,84.8,79.0,29.89,ENE,70,10.0,13.0,83,0.00,CLR,,0.00,WeatherDisplay:10.37,2013-08-21 00:00:00,
2013-08-20 18:15:00,84.9,79.2,29.89,ENE,76,10.0,15.0,83,0.00,CLR,,0.00,WeatherDisplay:10.37,2013-08-21 00:15:00,
2013-08-20 18:30:00,84.6,78.4,29.89,ENE,77,12.0,14.0,82,0.00,CLR,,0.00,WeatherDisplay:10.37,2013-08-21 00:30:00,
2013-08-20 18:45:00,84.8,78.3,29.90,East,88,12.0,15.0,81,0.00,CLR,,0.00,WeatherDisplay:10.37,2013-08-21 00:45:00,
2013-08-20 19:00:00,84.6,78.8,29.90,ENE,77,8.0,15.0,83,0.00,CLR,,0.00,WeatherDisplay:10.37,2013-08-21 01:00:00,
2013-08-20 19:15:00,84.6,78.9,29.91,East,85,7.0,13.0,83,0.00,CLR,,0.00,WeatherDisplay:10.37,2013-08-21 01:15:00,
2013-08-20 19:30:00,84.7,79.0,29.92,East,92,10.0,14.0,83,0.00,CLR,,0.00,WeatherDisplay:10.37,2013-08-21 01:30:00,
2013-08-20 19:45:00,84.7,79.0,29.92,ENE,77,7.0,13.0,83,0.00,CLR,,0.00,WeatherDisplay:10.37,2013-08-21 01:45:00,
2013-08-20 20:00:00,84.7,79.3,29.92,East,90,7.0,13.0,84,0.00,CLR,,0.00,WeatherDisplay:10.37,2013-08-21 02:00:00,
2013-08-20 20:15:00,84.6,78.9,29.93,ENE,71,5.0,13.0,83,0.00,CLR,,0.00,WeatherDisplay:10.37,2013-08-21 02:15:00,
2013-08-20 20:30:00,84.8,79.4,29.93,East,80,7.0,13.0,84,0.00,CLR,,0.00,WeatherDisplay:10.37,2013-08-21 02:30:00,
2013-08-20 20:45:00,84.8,79.1,29.94,ENE,64,9.0,13.0,83,0.00,CLR,,0.00,WeatherDisplay:10.37,2013-08-21 02:45:00,
2013-08-20 21:00:00,84.8,79.1,29.94,ENE,60,6.0,13.0,83,0.00,CLR,,0.00,WeatherDisplay:10.37,2013-08-21 03:00:00,
2013-08-20 21:15:00,84.9,79.2,29.95,East,80,7.0,13.0,83,0.00,CLR,,0.00,WeatherDisplay:10.37,2013-08-21 03:15:00,
2013-08-20 21:30:00,85.0,78.9,29.95,East,79,7.0,14.0,82,0.00,CLR,,0.00,WeatherDisplay:10.37,2013-08-21 03:30:00,
2013-08-20 21:45:00,85.0,79.6,29.95,East,81,7.0,14.0,84,0.00,CLR,,0.00,WeatherDisplay:10.37,2013-08-21 03:45:00,
2013-08-20 22:00:00,84.8,79.4,29.95,East,85,5.0,13.0,84,0.00,CLR,,0.00,WeatherDisplay:10.37,2013-08-21 04:00:00,
2013-08-20 22:15:00,84.7,79.3,29.96,NE,51,2.0,12.0,84,0.00,CLR,,0.00,WeatherDisplay:10.37,2013-08-21 04:15:00,
2013-08-20 22:30:00,84.6,79.2,29.96,ENE,65,6.0,13.0,84,0.00,CLR,,0.00,WeatherDisplay:10.37,2013-08-21 04:30:00,
2013-08-20 22:45:00,84.5,79.1,29.97,NE,54,6.0,9.0,84,0.00,CLR,,0.00,WeatherDisplay:10.37,2013-08-21 04:45:00,
2013-08-20 23:00:00,84.5,78.8,29.97,ENE,64,3.0,12.0,83,0.00,CLR,,0.00,WeatherDisplay:10.37,2013-08-21 05:00:00,
2013-08-20 23:15:00,84.5,78.8,29.97,East,86,8.0,13.0,83,0.00,CLR,,0.00,WeatherDisplay:10.37,2013-08-21 05:15:00,
2013-08-20 23:30:00,84.5,79.1,29.96,East,92,7.0,14.0,84,0.00,CLR,,0.00,WeatherDisplay:10.37,2013-08-21 05:30:00,
2013-08-20 23:45:00,84.3,78.9,29.96,ENE,57,5.0,12.0,84,0.00,CLR,,0.00,WeatherDisplay:10.37,2013-08-21 05:45:00,